Weather History for KFUL - June, 2013

Change the Weather History Date:

Saturday, June 1, 2013

  Actual Average Record
Temperature  
Mean Temperature 78 °F 68 °F  
Max Temperature 87 °F 76 °F 87 °F (2013)
Min Temperature 68 °F 60 °F 53 °F (2011)
Degree Days  
Heating Degree Days 0 0  
Month to date heating degree days 0 0  
Since 1 June heating degree days 0 0  
Since 1 July heating degree days 726 1224  
Cooling Degree Days 13 3  
Month to date cooling degree days 13 3  
Year to date cooling degree days 368 126  
Since 1 June cooling degree days 13 3  
Growing Degree Days 25 (Base 50)    
Moisture  
Dew Point 60 °F    
Average Humidity 61    
Maximum Humidity 78    
Minimum Humidity 44    
Precipitation  
Precipitation 0.00 in 0.01 in 0.05 in (1999)
Month to date precipitation 0.00 0.01  
Year to date precipitation 2.53 9.57  
Since 1 July precipitation 5.84 13.80  
Snow  
Snow 0.00 in - - ()
Month to date snowfall 0.0  
Year to date snowfall 0.0  
Since 1 July snowfall 0.0  
Snow Depth 0.00 in    
Sea Level Pressure  
Sea Level Pressure 29.80 in    
Wind  
Wind Speed 4 mph (SSW)    
Max Wind Speed 13 mph    
Max Gust Speed 16 mph    
Visibility 9 miles    
Events      
T = Trace of Precipitation, MM = Missing Value Source: NWS Daily Summary

Daily Weather History Graph

Daily Weather History Graph

Search for Another Location

Airport or City:

Trip Planner

Search our weather history database for the weather conditions in past years. The results will help you decide how hot, cold, wet, or windy it might be!

Date:

Astronomy

Jun. 01, 2013 Rise Set
Actual Time 5:41 AM PDT 7:57 PM PDT
Civil Twilight 5:13 AM PDT 8:26 PM PDT
Nautical Twilight 4:38 AM PDT 9:01 PM PDT
Astronomical Twilight 4:00 AM PDT 9:40 PM PDT
Moon 1:22 AM PDT (6/1) 1:48 PM PDT (6/1)
Length of Visible Light 15h 13m
Length of Day
14h 16m
Last Quarter, 40% of the Moon is Illuminated
Jun 1
Last Quarter
Jun 8
New
Jun 16
First Quarter
Jun 23
Full
Jun 29
Last Quarter

Hourly Weather History & Observations

Time (PDT) Temp. Heat Index Dew Point Humidity Pressure Visibility Wind Dir Wind Speed Gust Speed Precip Events Conditions
12:02 AM 66.2 °F - 59.0 °F 78% 29.86 in 9.0 mi SSW 3.5 mph - N/A   Mostly Cloudy
12:53 AM 66.9 °F - 59.0 °F 76% 29.84 in 9.0 mi Calm Calm - N/A   Overcast
1:53 AM 68.0 °F - 59.0 °F 73% 29.83 in 9.0 mi Calm Calm - N/A   Overcast
2:53 AM 68.0 °F - 59.0 °F 73% 29.82 in 9.0 mi Calm Calm - N/A   Overcast
3:53 AM 68.0 °F - 59.0 °F 73% 29.81 in 9.0 mi Calm Calm - N/A   Overcast
4:53 AM 68.0 °F - 59.0 °F 73% 29.81 in 9.0 mi Calm Calm - N/A   Overcast
5:53 AM 68.0 °F - 59.0 °F 73% 29.82 in 9.0 mi Calm Calm - N/A   Overcast
6:53 AM 68.0 °F - 59.0 °F 73% 29.82 in 8.0 mi Calm Calm - N/A   Overcast
7:53 AM 70.0 °F - 60.1 °F 71% 29.83 in 8.0 mi Calm Calm - N/A   Overcast
8:45 AM 71.6 °F - 60.8 °F 69% 29.82 in 7.0 mi Calm Calm - N/A   Overcast
8:53 AM 72.0 °F - 60.1 °F 66% 29.82 in 7.0 mi Calm Calm - N/A   Mostly Cloudy
9:36 AM 73.4 °F - 60.8 °F 65% 29.81 in 7.0 mi Calm Calm - N/A   Clear
9:53 AM 75.0 °F - 60.1 °F 60% 29.81 in 8.0 mi SSW 3.5 mph - N/A   Clear
10:53 AM 80.1 °F 80.9 °F 60.1 °F 50% 29.80 in 8.0 mi Variable 4.6 mph - N/A   Clear
11:53 AM 84.0 °F 84.0 °F 60.1 °F 44% 29.79 in 9.0 mi SW 4.6 mph - N/A   Clear
12:53 PM 82.9 °F 83.3 °F 61.0 °F 47% 29.77 in 10.0 mi SSW 9.2 mph - N/A   Clear
1:53 PM 82.9 °F 83.3 °F 61.0 °F 47% 29.76 in 10.0 mi SW 9.2 mph - N/A   Clear
2:53 PM 82.9 °F 83.7 °F 62.1 °F 49% 29.75 in 9.0 mi Variable 6.9 mph - N/A   Clear
3:53 PM 81.0 °F 81.9 °F 62.1 °F 52% 29.75 in 9.0 mi SSW 11.5 mph - N/A   Clear
4:53 PM 78.1 °F - 61.0 °F 56% 29.76 in 10.0 mi SSW 9.2 mph - N/A   Clear
5:53 PM 75.0 °F - 61.0 °F 62% 29.75 in 9.0 mi SSW 11.5 mph - N/A   Clear
6:53 PM 72.0 °F - 61.0 °F 68% 29.76 in 8.0 mi South 6.9 mph - N/A   Clear
7:53 PM 70.0 °F - 60.1 °F 71% 29.78 in 7.0 mi South 6.9 mph - N/A   Scattered Clouds
8:02 PM 69.8 °F - 60.8 °F 73% 29.78 in 4.0 mi SSW 5.8 mph - N/A   Haze
8:53 PM 68.0 °F - 59.0 °F 73% 29.80 in 10.0 mi Variable 4.6 mph - N/A   Overcast
9:53 PM 68.0 °F - 59.0 °F 73% 29.81 in 10.0 mi South 4.6 mph - N/A   Overcast
10:53 PM 69.1 °F - 59.0 °F 70% 29.82 in 10.0 mi Calm Calm - N/A   Overcast
11:53 PM 68.0 °F - 59.0 °F 73% 29.82 in 10.0 mi Calm Calm - N/A   Overcast